Terminal Aerodrome Forecast
Issued by NWS Cleveland, OH

Home | Current Version | Previous Version | Graphics & Text | Print | Product List | Glossary On
Versions: 1 2 3 4 5 6 7 8 9 10 11 12 13 14 15 16 17 18 19 20 21 22
111
FTUS41 KCLE 210935 AAA
TAFERI
TAF AMD
KERI 210935Z 2110/2206 16015G25KT P6SM OVC250
     FM211800 20012G20KT P6SM OVC120
     FM212200 20010KT 6SM -SHRA BR OVC035
     FM220000 20006KT 4SM -SHRA BR OVC015=

USA.gov is the U.S. government's official web portal to all federal, state and local government web resources and services.